Location: Caltech
(34.1382°N, 118.1253°W)
Time: 17:38:35
(UTC-08:00)

CZ-2C R/B - Visible Passes

Search period start: 19 February 2017 00:00
Search period end: 01 March 2017 00:00
Orbit: 668 x 786 km, 98.1° (Epoch: 18 February)

Date Brightness Start Highest point End Pass type
(mag) Time Alt. Az. Time Alt. Az. Time Alt. Az.
19 Feb 3.8 05:31:02 10° NNE 05:35:38 42° E 05:40:21 10° S visible
19 Feb 5.4 18:16:14 10° SW 18:19:35 20° W 18:22:56 10° NW visible
20 Feb 5.7 04:45:13 10° ENE 04:47:28 13° E 04:49:44 10° ESE visible
21 Feb 3.7 05:33:20 10° NNE 05:38:02 45° E 05:42:50 10° S visible
21 Feb 5.5 18:18:46 10° SW 18:21:57 19° W 18:25:09 10° NW visible
22 Feb 5.7 04:47:17 10° ENE 04:49:53 14° E 04:52:29 10° SE visible
23 Feb 3.6 05:35:40 10° NNE 05:40:25 48° E 05:45:18 10° S visible
23 Feb 5.5 18:21:19 10° SW 18:24:20 17° W 18:27:22 10° NW visible
24 Feb 5.6 04:49:24 10° ENE 04:52:17 15° E 04:55:11 10° SE visible
25 Feb 3.5 05:37:59 10° NNE 05:42:49 52° E 05:47:46 10° S visible
25 Feb 5.6 18:23:53 10° SW 18:26:43 16° W 18:29:34 10° NW visible
26 Feb 5.5 04:51:33 10° NE 04:54:41 17° E 04:57:51 10° SE visible
27 Feb 3.3 05:40:19 10° NNE 05:45:13 56° E 05:50:13 10° S visible
27 Feb 5.7 18:26:27 10° SW 18:29:06 15° W 18:31:46 10° WNW visible
28 Feb 5.5 04:53:45 10° NE 04:57:07 18° E 05:00:30 10° SE visible
